{"data":{"norad_id":66703,"epoch":"2026-09-20T04:50:02.768352Z","epoch_age_seconds":40345,"freshness":"FRESH","line1":"1 66703U 25276AP  26263.20142093  .00003942  00000+0  11856-3 0  9995","line2":"2 66703  97.3306 337.8419 0002010  95.0617 265.0855 15.34976397 45080","mean_motion":15.34976397,"eccentricity":0.000201,"inclination_deg":97.3306,"raan_deg":337.8419,"arg_perigee_deg":95.0617,"mean_anomaly_deg":265.0855,"bstar":0.00011856,"rev_number":4508,"period_min":93.812517431172,"perigee_km":459.61593832004,"apogee_km":462.36526761644,"semimajor_km":6839.1276029682,"source":"CELESTRAK","updated_at":"2026-09-20T09:00:34.725150Z"}}